Precipitable_Water
0.59 0.53 0.47 0.45 0.43 0.38 0.36 0.34 0.35 0.32 0.34 0.36 0.35 0.35 0.34 0.31 0.32 0.29 0.28 0.26 0.25 0.24
0.52 0.48 0.46 0.46 0.44 0.40 0.36 0.36 0.34 0.33 0.33 0.36 0.35 0.32 0.32 0.31 0.29 0.28 0.28 0.25 0.24 0.24
0.52 0.48 0.46 0.44 0.42 0.39 0.37 0.37 0.34 0.33 0.32 0.33 0.33 0.31 0.31 0.30 0.30 0.28 0.29 0.27 0.25 0.26
0.51 0.50 0.48 0.43 0.40 0.39 0.38 0.37 0.35 0.33 0.31 0.30 0.31 0.31 0.29 0.30 0.30 0.27 0.28 0.29 0.26 0.23
0.50 0.47 0.40 0.38 0.38 0.38 0.36 0.35 0.33 0.32 0.30 0.29 0.29 0.30 0.29 0.28 0.28 0.26 0.26 0.27 0.25 0.22
0.45 0.41 0.38 0.38 0.35 0.35 0.34 0.33 0.32 0.30 0.29 0.28 0.29 0.29 0.30 0.29 0.29 0.27 0.27 0.27 0.25 0.23
0.42 0.38 0.37 0.35 0.33 0.33 0.32 0.30 0.29 0.28 0.26 0.26 0.27 0.29 0.30 0.29 0.28 0.29 0.29 0.28 0.26 0.24
0.41 0.39 0.36 0.32 0.30 0.31 0.31 0.29 0.28 0.25 0.22 0.20 0.23 0.28 0.28 0.28 0.28 0.28 0.27 0.27 0.25 0.25
0.41 0.38 0.33 0.31 0.30 0.30 0.29 0.29 0.26 0.22 0.19 0.17 0.19 0.25 0.28 0.28 0.28 0.27 0.25 0.24 0.24 0.24
0.40 0.33 0.31 0.31 0.30 0.28 0.28 0.29 0.25 0.22 0.20 0.17 0.20 0.24 0.27 0.28 0.28 0.26 0.25 0.24 0.23 0.21
0.39 0.35 0.35 0.33 0.30 0.30 0.29 0.27 0.25 0.25 0.21 0.18 0.20 0.24 0.26 0.26 0.27 0.26 0.26 0.25 0.25 0.22
0.44 0.39 0.36 0.33 0.31 0.30 0.28 0.28 0.27 0.26 0.23 0.19 0.20 0.23 0.25 0.26 0.26 0.25 0.25 0.26 0.24 0.23
0.48 0.41 0.36 0.33 0.31 0.29 0.28 0.27 0.28 0.27 0.28 0.23 0.19 0.20 0.23 0.24 0.24 0.23 0.24 0.25 0.25 0.23
0.52 0.44 0.38 0.37 0.35 0.31 0.30 0.28 0.28 0.28 0.28 0.27 0.19 0.18 0.21 0.21 0.22 0.23 0.23 0.22 0.21 0.18
Wind_Speed
22 21 20 20 18 17 16 14 13 12 11 10 10 10 10 10 10 11 12 13 14 15
23 22 21 19 18 17 16 15 14 13 12 11 10 10 10 10 11 12 12 13 14 14
23 22 21 20 20 18 17 16 15 13 12 11 10 10 10 11 11 12 12 13 14 15
24 23 22 21 20 19 18 17 15 14 13 12 11 11 11 11 12 11 12 13 14 15
25 24 22 21 21 20 19 17 16 14 13 12 12 11 11 11 11 11 12 12 13 15
25 23 22 21 20 20 19 18 17 15 14 13 12 12 12 11 11 11 11 12 13 15
25 24 23 22 21 20 20 19 17 16 15 14 13 12 12 11 11 11 11 12 13 15
26 25 24 23 23 22 21 19 18 17 15 14 14 13 12 11 11 10 11 12 13 15
28 27 26 25 23 22 21 20 19 17 16 15 14 13 12 11 11 10 11 12 13 15
29 28 27 26 24 23 22 21 19 18 16 15 14 13 12 11 10 10 11 12 14 16
30 29 27 26 25 24 23 22 20 19 17 15 14 13 12 11 11 10 11 12 14 17
31 29 28 27 26 25 24 22 20 19 17 16 14 13 12 11 10 10 11 12 14 17
32 31 29 27 26 25 23 22 20 19 18 16 15 13 12 12 11 10 11 13 15 18
33 31 30 28 26 25 23 22 21 19 18 17 15 14 13 12 12 11 12 13 16 18
Wind_Direction
244 247 249 251 254 254 254 255 255 257 261 269 277 286 290 295 300 308 312 317 319 321
243 245 247 247 249 251 250 249 250 252 257 266 272 280 288 293 301 308 312 317 321 323
240 242 246 247 247 246 244 243 244 248 253 260 270 276 286 293 300 306 309 315 320 323
239 243 245 244 242 239 240 240 241 244 250 257 267 273 283 292 298 305 309 314 320 325
239 240 239 239 239 238 236 235 237 241 248 257 265 272 282 289 296 302 308 313 319 325
233 234 235 234 232 232 231 233 235 241 248 256 264 272 281 286 292 299 307 312 318 324
230 231 230 229 230 230 231 232 234 240 248 255 261 271 277 283 288 296 305 312 318 324
228 228 228 229 230 229 229 231 234 240 246 254 259 267 272 278 285 293 303 312 318 325
226 227 227 227 226 226 228 230 234 239 244 252 258 262 266 272 283 291 300 310 318 323
223 223 224 224 225 225 227 231 233 237 243 250 255 257 261 270 278 288 298 308 316 323
220 221 222 223 224 226 227 228 230 237 241 246 252 255 260 266 274 285 297 308 317 324
219 220 221 222 222 223 225 228 230 234 238 244 249 252 256 264 269 283 296 308 318 325
218 219 219 219 220 222 224 226 229 232 239 241 247 249 253 260 268 282 294 306 316 325
217 217 217 217 219 221 223 226 229 230 235 241 243 246 251 257 265 279 292 304 314 322